This is the latest recevied weather packets stored in our database for station/object OM6ACB-6. If no packets are shown the sender has not sent any weather packets the latest 10 day(s).
| Time | Temp. | Humidity | Pressure | Rain* | Wind** | Luminosity | Snow |
|---|---|---|---|---|---|---|---|
| 1777794801 | 19.44° C | 23% | 1024.7 hPa | 0 mm | - | - | - |
| 1777794201 | 19.44° C | 23% | 1025 hPa | 0 mm | - | - | - |
| 1777793600 | 18.33° C | 23% | 1024.8 hPa | 0 mm | - | - | - |
| 1777793000 | 17.22° C | 24% | 1024.6 hPa | 0 mm | - | - | - |
| 1777792400 | 16.11° C | 25% | 1024.9 hPa | 0 mm | - | - | - |
| 1777791799 | 17.22° C | 24% | 1024.7 hPa | 0 mm | - | - | - |
| 1777791199 | 14.44° C | 25% | 1024.3 hPa | 0 mm | - | - | - |
| 1777790599 | 14.44° C | 25% | 1024.3 hPa | 0 mm | - | - | - |
| 1777789999 | 14.44° C | 25% | 1024.4 hPa | 0 mm | - | - | - |
| 1777789398 | 14.44° C | 25% | 1024.4 hPa | 0 mm | - | - | - |
| 1777788798 | 14.44° C | 25% | 1024.3 hPa | 0 mm | - | - | - |
| 1777788198 | 14.44° C | 25% | 1024.4 hPa | 0 mm | - | - | - |
| 1777787597 | 12.78° C | 26% | 1024 hPa | 0 mm | - | - | - |
| 1777786997 | 12.22° C | 26% | 1024.1 hPa | 0 mm | - | - | - |
| 1777786397 | 12.22° C | 27% | 1024.1 hPa | 0 mm | - | - | - |
| 1777785797 | 10° C | 28% | 1023.8 hPa | 0 mm | - | - | - |
| 1777785196 | 10° C | 28% | 1023.8 hPa | 0 mm | - | - | - |
| 1777784596 | 8.89° C | 28% | 1023.4 hPa | 0 mm | - | - | - |
| 1777783996 | 7.78° C | 29% | 1023.4 hPa | 0 mm | - | - | - |
| 1777783395 | 8.33° C | 28% | 1023.4 hPa | 0 mm | - | - | - |
| 1777782795 | 5.56° C | 30% | 1022.9 hPa | 0 mm | - | - | - |
| 1777782195 | 5.56° C | 30% | 1022.8 hPa | 0 mm | - | - | - |
| 1777781595 | 5.56° C | 30% | 1022.7 hPa | 0 mm | - | - | - |
| 1777780994 | 2.78° C | 31% | 1022.3 hPa | 0 mm | - | - | - |
| 1777780394 | 2.22° C | 39% | 1022.1 hPa | 0 mm | - | - | - |
* Rain latest hour (hover to see other rain measurements)
** Current wind speed in m/s (hover to see current wind gust speed)